IRIDIUM 131 (43079 NORAD) Tracking and Keplerian Element Data

This shows tracking and keplerian element data for the satellite.

Feedback or suggestion? Click here.




ElementValue
Catalog43079
NameIRIDIUM 131
Epoch Orbit37267
Epoch Day34.83309101
Epoch Year2025
RAAN170.4459
Inclination86.4029
Eccentricity0.0001832
Argument of Perigee97.3667
Mean Anonmoly262.7737
Mean Motion14.34218563
Decay Rate2.83E-06
L11 43079U 17083K 25034.83309101 .00000283 00000+0 93927-4 0 9997
L22 43079 86.4029 170.4459 0001832 97.3667 262.7737 14.34218563372672



Live tracking and technical data element details for IRIDIUM 131 (NORAD 43079). IRIDIUM 131 can be tracked NOW for your location showing map with azimuth and elevation plus other details from your city location.







IsCatalogInMostPopularTable: catalog: 43079, numindb: 787
Update: records affected: 1



GetName: 43079 IRIDIUM 131

Hit Count: updated at: Wed, 18 Jun 2025 05:44:42 GMT